TimeEDT,TemperatureF,Dew PointF,Humidity,Sea Level PressureIn,VisibilityMPH,Wind Direction,Wind SpeedMPH,Gust SpeedMPH,PrecipitationIn,Events,Conditions,WindDirDegrees,DateUTC
12:53 AM,41.0,39.9,96,30.07,10.0,Calm,Calm,-,N/A,,Clear,0,2013-09-26 04:53:00
1:53 AM,39.9,37.9,93,30.07,10.0,Calm,Calm,-,N/A,,Clear,0,2013-09-26 05:53:00
2:53 AM,39.9,37.0,89,30.08,10.0,Calm,Calm,-,N/A,,Clear,0,2013-09-26 06:53:00
3:53 AM,37.0,35.1,93,30.08,10.0,Calm,Calm,-,N/A,,Clear,0,2013-09-26 07:53:00
4:11 AM,39.2,35.6,87,30.07,1.8,Calm,Calm,-,N/A,,Scattered Clouds,0,2013-09-26 08:11:00
4:23 AM,39.2,37.4,93,30.07,4.0,Calm,Calm,-,N/A,,Scattered Clouds,0,2013-09-26 08:23:00
4:42 AM,39.2,37.4,93,30.08,10.0,Calm,Calm,-,N/A,,Mostly Cloudy,0,2013-09-26 08:42:00
4:51 AM,33.8,33.8,100,30.08,10.0,Calm,Calm,-,N/A,,Partly Cloudy,0,2013-09-26 08:51:00
4:53 AM,34.0,33.1,96,30.10,10.0,Calm,Calm,-,N/A,,Partly Cloudy,0,2013-09-26 08:53:00
5:53 AM,37.9,35.1,89,30.12,9.0,Calm,Calm,-,N/A,,Scattered Clouds,0,2013-09-26 09:53:00
6:01 AM,37.4,37.4,100,30.11,6.0,Calm,Calm,-,N/A,,Mostly Cloudy,0,2013-09-26 10:01:00
6:26 AM,35.6,33.8,93,30.11,1.5,Calm,Calm,-,N/A,,Mostly Cloudy,0,2013-09-26 10:26:00
6:33 AM,35.6,33.8,93,30.11,0.2,Calm,Calm,-,N/A,Fog,Fog,0,2013-09-26 10:33:00
6:43 AM,35.6,35.6,100,30.11,0.8,Calm,Calm,-,N/A,,Mist,0,2013-09-26 10:43:00
6:48 AM,35.6,35.6,100,30.11,1.5,Calm,Calm,-,N/A,,Scattered Clouds,0,2013-09-26 10:48:00
6:53 AM,35.1,34.0,96,30.14,4.0,Calm,Calm,-,N/A,,Scattered Clouds,0,2013-09-26 10:53:00
7:53 AM,35.1,32.0,89,30.15,10.0,Calm,Calm,-,N/A,,Clear,0,2013-09-26 11:53:00
8:53 AM,43.0,39.9,89,30.15,10.0,Calm,Calm,-,N/A,,Clear,0,2013-09-26 12:53:00
9:53 AM,50.0,44.1,80,30.17,10.0,Calm,Calm,-,N/A,,Clear,0,2013-09-26 13:53:00
10:53 AM,59.0,46.0,62,30.16,10.0,Variable,3.5,-,N/A,,Clear,0,2013-09-26 14:53:00
11:53 AM,63.0,43.0,48,30.14,10.0,SE,5.8,-,N/A,,Clear,140,2013-09-26 15:53:00
12:53 PM,66.9,41.0,39,30.14,10.0,Variable,3.5,-,N/A,,Clear,0,2013-09-26 16:53:00
1:53 PM,71.1,39.0,31,30.14,10.0,Calm,Calm,-,N/A,,Clear,0,2013-09-26 17:53:00
2:53 PM,72.0,37.9,29,30.13,10.0,Variable,3.5,-,N/A,,Clear,0,2013-09-26 18:53:00
3:53 PM,73.9,37.9,27,30.12,10.0,South,9.2,-,N/A,,Clear,180,2013-09-26 19:53:00
4:53 PM,73.9,37.0,26,30.13,10.0,Calm,Calm,-,N/A,,Clear,0,2013-09-26 20:53:00
5:53 PM,73.9,34.0,23,30.13,10.0,South,5.8,-,N/A,,Clear,190,2013-09-26 21:53:00
6:53 PM,71.1,36.0,28,30.14,10.0,Calm,Calm,-,N/A,,Clear,0,2013-09-26 22:53:00
7:53 PM,62.1,42.1,48,30.16,10.0,Calm,Calm,-,N/A,,Clear,0,2013-09-26 23:53:00
8:53 PM,57.0,46.0,67,30.17,10.0,Calm,Calm,-,N/A,,Clear,0,2013-09-27 00:53:00
9:53 PM,57.0,48.0,72,30.17,10.0,SE,6.9,-,N/A,,Clear,130,2013-09-27 01:53:00
10:53 PM,55.0,46.9,74,30.17,10.0,SE,6.9,-,N/A,,Clear,140,2013-09-27 02:53:00
11:53 PM,53.1,46.0,77,30.17,10.0,Calm,Calm,-,N/A,,Clear,0,2013-09-27 03:53:00